Time,TemperatureF,DewpointF,PressureIn,WindDirection,WindDirectionDegrees,WindSpeedMPH,WindSpeedGustMPH,Humidity,HourlyPrecipIn,Conditions,Clouds,dailyrainin,SoftwareType,DateUTC
2013-03-05 04:00:00,37.0,36.0,29.71,North,-999,-999.0,-999.0,96,-99.99,,,-99.99,,2013-03-05 04:00:00,
2013-03-05 04:41:00,37.0,36.0,29.71,North,-999,-999.0,-999.0,96,-99.99,,,-99.99,,2013-03-05 04:41:00,
2013-03-05 04:51:00,37.0,36.0,29.71,North,-999,-999.0,-999.0,96,-99.99,,,-99.99,,2013-03-05 04:51:00,
2013-03-05 05:00:00,41.0,39.0,29.69,North,-999,-999.0,-999.0,92,-99.99,,,-99.99,,2013-03-05 05:00:00,
2013-03-05 05:41:00,41.0,39.0,29.69,North,-999,-999.0,-999.0,92,-99.99,,,-99.99,,2013-03-05 05:41:00,
2013-03-05 05:51:00,41.0,39.0,29.69,North,-999,-999.0,-999.0,92,-99.99,,,-99.99,,2013-03-05 05:51:00,
2013-03-05 06:00:00,38.0,36.0,29.71,North,-999,-999.0,-999.0,91,-99.99,,,-99.99,,2013-03-05 06:00:00,
2013-03-05 06:41:00,38.0,36.0,29.71,North,-999,-999.0,-999.0,91,-99.99,,,-99.99,,2013-03-05 06:41:00,
2013-03-05 06:52:00,38.0,36.0,29.71,North,-999,-999.0,-999.0,91,-99.99,,,-99.99,,2013-03-05 06:52:00,
2013-03-05 07:00:00,37.0,35.0,29.71,North,-999,-999.0,-999.0,92,-99.99,,,-99.99,,2013-03-05 07:00:00,
2013-03-05 07:41:00,37.0,35.0,29.71,North,-999,-999.0,-999.0,92,-99.99,,,-99.99,,2013-03-05 07:41:00,
2013-03-05 07:51:00,37.0,35.0,29.71,North,-999,-999.0,-999.0,92,-99.99,,,-99.99,,2013-03-05 07:51:00,
2013-03-05 08:00:00,39.0,37.0,29.70,North,-999,-999.0,-999.0,91,-99.99,,,-99.99,,2013-03-05 08:00:00,
2013-03-05 08:41:00,39.0,37.0,29.70,North,-999,-999.0,-999.0,91,-99.99,,,-99.99,,2013-03-05 08:41:00,
2013-03-05 08:51:00,39.0,37.0,29.70,North,-999,-999.0,-999.0,91,-99.99,,,-99.99,,2013-03-05 08:51:00,
2013-03-05 09:00:00,42.0,40.0,29.70,North,-999,-999.0,-999.0,93,-99.99,,,-99.99,,2013-03-05 09:00:00,
2013-03-05 09:42:00,42.0,40.0,29.70,North,-999,-999.0,-999.0,93,-99.99,,,-99.99,,2013-03-05 09:42:00,
2013-03-05 09:51:00,42.0,40.0,29.70,North,-999,-999.0,-999.0,93,-99.99,,,-99.99,,2013-03-05 09:51:00,
2013-03-05 10:00:00,40.0,38.0,29.71,North,-999,-999.0,-999.0,91,-99.99,,,-99.99,,2013-03-05 10:00:00,
2013-03-05 10:41:00,40.0,38.0,29.71,North,-999,-999.0,-999.0,91,-99.99,,,-99.99,,2013-03-05 10:41:00,
2013-03-05 10:51:00,40.0,38.0,29.71,North,-999,-999.0,-999.0,91,-99.99,,,-99.99,,2013-03-05 10:51:00,
2013-03-05 11:00:00,42.0,39.0,29.71,North,-999,-999.0,-999.0,87,-99.99,,,-99.99,,2013-03-05 11:00:00,
2013-03-05 11:41:00,42.0,39.0,29.71,North,-999,-999.0,-999.0,87,-99.99,,,-99.99,,2013-03-05 11:41:00,
2013-03-05 11:52:00,42.0,39.0,29.71,North,-999,-999.0,-999.0,87,-99.99,,,-99.99,,2013-03-05 11:52:00,
2013-03-05 12:00:00,45.0,41.0,29.69,North,-999,-999.0,-999.0,85,-99.99,,,-99.99,,2013-03-05 12:00:00,
2013-03-05 12:41:00,45.0,41.0,29.69,North,-999,-999.0,-999.0,85,-99.99,,,-99.99,,2013-03-05 12:41:00,
2013-03-05 12:52:00,45.0,41.0,29.69,North,-999,-999.0,-999.0,85,-99.99,,,-99.99,,2013-03-05 12:52:00,
2013-03-05 15:00:00,46.0,39.0,29.66,North,-999,-999.0,-999.0,75,-99.99,,,-99.99,,2013-03-05 15:00:00,
2013-03-05 15:42:00,46.0,39.0,29.66,North,-999,-999.0,-999.0,75,-99.99,,,-99.99,,2013-03-05 15:42:00,
2013-03-05 15:51:00,46.0,39.0,29.66,North,-999,-999.0,-999.0,75,-99.99,,,-99.99,,2013-03-05 15:51:00,
2013-03-05 16:00:00,46.0,41.0,29.62,North,-999,-999.0,-999.0,81,-99.99,,,-99.99,,2013-03-05 16:00:00,
2013-03-05 16:41:00,46.0,41.0,29.62,North,-999,-999.0,-999.0,81,-99.99,,,-99.99,,2013-03-05 16:41:00,
2013-03-05 16:51:00,46.0,41.0,29.62,North,-999,-999.0,-999.0,81,-99.99,,,-99.99,,2013-03-05 16:51:00,